UTA281 USSS-UWWW

Flight info

Callsign UTA281
Flight time 1h 22m
Altitude 34000
Route MIKUS6J MIKUS T764 EKRIM T759 NALUS NALUS2F
Aircraft B738/M-SDE2E3FGHIRWXY/LB1

Departure

Time 2025-10-09 20:42
Airport Koltsovo Airport (USSS)

Arrival

Time 2025-10-09 22:05
Airport Kurumoch International Airport (UWWW)
Time Latitude Longitude Altitude Speed Heading
2025-10-09 19:40 56.74937 60.79831 756 ft 0 kts
2025-10-09 20:30 56.74888 60.79845 756 ft 2 kts 337°
2025-10-09 20:31 56.74863 60.79881 752 ft 2 kts 302°
2025-10-09 20:31 56.74853 60.79935 753 ft 1 kts 272°
2025-10-09 20:36 56.74854 60.79887 753 ft 4 kts 270°
2025-10-09 20:37 56.74858 60.78976 749 ft 27 kts 273°
2025-10-09 20:37 56.74859 60.78711 747 ft 18 kts 270°
2025-10-09 20:38 56.74657 60.78147 744 ft 11 kts 180°
2025-10-09 20:39 56.74504 60.78168 745 ft 11 kts 146°
2025-10-09 20:39 56.74484 60.78400 750 ft 0 kts 91°
2025-10-09 20:40 56.74483 60.78552 751 ft 38 kts 90°
2025-10-09 20:40 56.74478 60.81202 764 ft 163 kts 90°
2025-10-09 20:41 56.74474 60.83464 1181 ft 181 kts 90°
2025-10-09 20:41 56.74442 60.87686 2901 ft 177 kts 95°
2025-10-09 20:42 56.74187 60.92940 3140 ft 233 kts 95°
2025-10-09 20:42 56.73454 61.02455 3918 ft 266 kts 123°
2025-10-09 20:43 56.70337 61.05609 5419 ft 267 kts 182°
2025-10-09 20:43 56.67189 61.02619 6890 ft 264 kts 241°
2025-10-09 20:44 56.66899 60.96207 8357 ft 264 kts 287°
2025-10-09 20:44 56.68053 60.89769 9818 ft 271 kts 288°
2025-10-09 20:45 56.68647 60.86492 10527 ft 275 kts 288°
2025-10-09 20:45 56.69904 60.79447 10946 ft 317 kts 288°
2025-10-09 20:46 56.71314 60.71395 11610 ft 345 kts 288°
2025-10-09 20:46 56.73511 60.58709 13572 ft 356 kts 287°
2025-10-09 20:47 56.73293 60.49802 14723 ft 366 kts 246°
2025-10-09 20:47 56.69811 60.43088 15850 ft 379 kts 208°
2025-10-09 20:48 56.64943 60.39180 16942 ft 387 kts 205°
2025-10-09 20:48 56.59964 60.35224 18027 ft 394 kts 205°
2025-10-09 20:49 56.57448 60.33204 18571 ft 397 kts 206°
2025-10-09 20:49 56.52357 60.29098 19515 ft 403 kts 206°
2025-10-09 20:50 56.47190 60.24929 20417 ft 409 kts 206°
2025-10-09 20:50 56.39494 60.18143 21685 ft 414 kts 224°
2025-10-09 20:51 56.35485 60.10715 22595 ft 416 kts 227°
2025-10-09 20:51 56.31300 60.03391 23393 ft 422 kts 226°
2025-10-09 20:52 56.29170 59.99721 23803 ft 425 kts 226°
2025-10-09 20:52 56.22726 59.88599 24845 ft 431 kts 227°
2025-10-09 20:54 56.05183 59.58301 27334 ft 444 kts 233°
2025-10-09 20:56 55.93709 59.19653 30039 ft 438 kts 245°
2025-10-09 20:58 55.82834 58.83207 32350 ft 432 kts 245°
2025-10-09 21:00 55.71536 58.45956 34291 ft 429 kts 245°
2025-10-09 21:02 55.60278 58.09393 34315 ft 418 kts 245°
2025-10-09 21:04 55.50395 57.77834 34302 ft 422 kts 245°
2025-10-09 21:06 55.37485 57.37300 34300 ft 419 kts 244°
2025-10-09 21:08 55.27444 57.06206 34296 ft 418 kts 244°
2025-10-09 21:10 55.14459 56.66468 34296 ft 418 kts 244°
2025-10-09 21:12 55.02816 56.31367 34287 ft 418 kts 244°
2025-10-09 21:15 54.89751 55.92526 34278 ft 418 kts 243°
2025-10-09 21:16 54.79363 55.62160 34288 ft 418 kts 243°
2025-10-09 21:18 54.67370 55.27542 34279 ft 420 kts 243°
2025-10-09 21:20 54.55234 54.92985 34275 ft 422 kts 243°
2025-10-09 21:22 54.43019 54.58661 34274 ft 421 kts 242°
2025-10-09 21:24 54.30719 54.24581 34275 ft 419 kts 242°
2025-10-09 21:26 54.19838 53.94810 34274 ft 0 kts 242°
2025-10-09 21:30 54.18440 53.90598 34218 ft 406 kts 243°
2025-10-09 21:32 54.06568 53.58976 32276 ft 384 kts 242°
2025-10-09 21:34 53.95261 53.28874 28768 ft 372 kts 240°
2025-10-09 21:36 53.84428 53.00351 25786 ft 349 kts 240°
2025-10-09 21:37 53.82049 52.89094 24710 ft 338 kts 261°
2025-10-09 21:38 53.81246 52.81312 24016 ft 334 kts 261°
2025-10-09 21:38 53.80063 52.69751 22861 ft 329 kts 261°
2025-10-09 21:39 53.79276 52.62179 22158 ft 324 kts 261°
2025-10-09 21:39 53.78493 52.54716 21484 ft 320 kts 261°
2025-10-09 21:40 53.77715 52.47358 20822 ft 316 kts 261°
2025-10-09 21:40 53.76942 52.40086 20159 ft 313 kts 261°
2025-10-09 21:41 53.76557 52.36480 19842 ft 311 kts 261°
2025-10-09 21:41 53.75789 52.29319 19196 ft 309 kts 260°
2025-10-09 21:42 53.75021 52.22200 18557 ft 307 kts 260°
2025-10-09 21:43 53.73492 52.08156 17189 ft 301 kts 260°
2025-10-09 21:43 53.73112 52.04695 16884 ft 299 kts 260°
2025-10-09 21:43 53.72485 51.98990 16366 ft 296 kts 260°
2025-10-09 21:44 53.71733 51.92189 15748 ft 294 kts 260°
2025-10-09 21:44 53.71355 51.88784 15452 ft 296 kts 259°
2025-10-09 21:45 53.70451 51.80681 14741 ft 309 kts 259°
2025-10-09 21:45 53.69779 51.74692 14184 ft 309 kts 259°
2025-10-09 21:46 53.68978 51.67584 13483 ft 307 kts 259°
2025-10-09 21:46 53.67785 51.57068 12505 ft 301 kts 259°
2025-10-09 21:47 53.67099 51.50152 11903 ft 297 kts 270°
2025-10-09 21:47 53.67511 51.43311 11511 ft 292 kts 276°
2025-10-09 21:48 53.67728 51.39951 11309 ft 292 kts 276°
2025-10-09 21:48 53.68345 51.29713 10687 ft 293 kts 275°
2025-10-09 21:49 53.68545 51.26248 10472 ft 293 kts 275°
2025-10-09 21:49 53.69122 51.16078 9813 ft 286 kts 275°
2025-10-09 21:50 53.69308 51.12766 9598 ft 281 kts 275°
2025-10-09 21:50 53.69844 51.03054 9011 ft 276 kts 274°
2025-10-09 21:51 53.70196 50.96602 8606 ft 276 kts 274°
2025-10-09 21:51 53.70370 50.93378 8424 ft 276 kts 274°
2025-10-09 21:52 53.70715 50.86955 8033 ft 270 kts 274°
2025-10-09 21:52 53.71047 50.80735 7606 ft 262 kts 273°
2025-10-09 21:53 53.71522 50.71701 6947 ft 251 kts 273°
2025-10-09 21:53 53.71822 50.65906 6051 ft 249 kts 272°
2025-10-09 21:54 53.72262 50.57323 4494 ft 244 kts 272°
2025-10-09 21:55 53.72548 50.51671 3485 ft 239 kts 272°
2025-10-09 21:55 53.72687 50.48889 2963 ft 237 kts 272°
2025-10-09 21:55 53.72960 50.43415 2133 ft 226 kts 272°
2025-10-09 21:56 53.73201 50.38605 2049 ft 185 kts 271°
2025-10-09 21:56 53.73409 50.34340 2084 ft 183 kts 271°
2025-10-09 21:57 53.73609 50.30273 2102 ft 170 kts 271°
2025-10-09 21:57 53.73797 50.26364 2082 ft 167 kts 271°
2025-10-09 21:58 53.73885 50.20578 2064 ft 164 kts 238°
2025-10-09 21:58 53.73027 50.19497 2108 ft 157 kts 197°
2025-10-09 21:59 53.71064 50.17730 2094 ft 163 kts 208°
2025-10-09 21:59 53.69057 50.15895 2084 ft 162 kts 207°
2025-10-09 22:00 53.67102 50.14131 2092 ft 160 kts 207°
2025-10-09 22:00 53.65117 50.12346 2089 ft 164 kts 207°
2025-10-09 22:01 53.63058 50.10776 2074 ft 163 kts 182°
2025-10-09 22:01 53.60895 50.11612 2097 ft 159 kts 172°
2025-10-09 22:02 53.57633 50.13392 1531 ft 161 kts 162°
2025-10-09 22:03 53.55518 50.14659 1162 ft 166 kts 160°
2025-10-09 22:03 53.54465 50.15291 981 ft 165 kts 160°
2025-10-09 22:03 53.52307 50.16581 537 ft 165 kts 160°
2025-10-09 22:04 53.50487 50.17669 410 ft 45 kts 163°
2025-10-09 22:04 53.50011 50.17950 405 ft 34 kts 160°
2025-10-09 22:05 53.49571 50.18212 397 ft 36 kts 160°
2025-10-09 22:06 53.49295 50.18204 391 ft 0 kts 249°
2025-10-09 22:07 53.49292 50.18191 391 ft 5 kts 251°
2025-10-09 22:07 53.49345 50.17930 392 ft 20 kts 333°
2025-10-09 22:08 53.49718 50.17702 392 ft 38 kts 340°
2025-10-09 22:08 53.49993 50.17538 392 ft 44 kts 340°
2025-10-09 22:09 53.50657 50.17141 408 ft 29 kts 340°
2025-10-09 22:09 53.50906 50.16862 411 ft 17 kts 302°
2025-10-09 22:10 53.51110 50.16303 415 ft 23 kts 301°
2025-10-09 22:10 53.51148 50.16155 419 ft 12 kts 264°
2025-10-09 22:11 53.51129 50.15986 422 ft 6 kts 313°
2025-10-09 22:11 53.51172 50.15940 421 ft 1 kts 328°
2025-10-09 22:12 53.51176 50.15935 422 ft 0 kts 329°